Location: Berg
(47.2344°N, 9.5296°E)
Time: 22:25:22
(UTC+00:00)

USA 229 DEB - Pass Details

Date: 24 January 2021
Orbit: 965 x 1247 km, 63.4° (Epoch: 03 March)

Event Time Altitude Azimuth Distance (km) Brightness Sun altitude
Rises 16:40:56 0° 317° (NW) 3,894 6.9 -5.3°
Reaches altitude 10° 16:43:47 10° 326° (NW) 2,979 6.2 -5.7°
Maximum altitude 16:50:22 38° 33° (NNE) 1,710 4.4 -6.8°
Drops below altitude 10° 16:57:18 10° 99° (E) 3,149 5.6 -7.9°
Enters shadow 16:59:53 - 106° (ESE) 3,975 6.2 -8.3°
